TimeNST,TemperatureF,Dew PointF,Humidity,Sea Level PressureIn,VisibilityMPH,Wind Direction,Wind SpeedMPH,Gust SpeedMPH,PrecipitationIn,Events,Conditions,WindDirDegrees,DateUTC
12:30 AM,43.0,41.7,95,29.65,-9999.0,WSW,9.2,17.3,N/A,,Unknown,250,2013-12-07 04:00:00
1:30 AM,41.5,40.3,95,29.67,-9999.0,West,11.5,21.9,N/A,,Unknown,270,2013-12-07 05:00:00
2:30 AM,42,40,89,29.70,,West,4.6,,,,,260,2013-12-07 06:00:00
2:30 AM,41.5,39.9,94,29.70,-9999.0,West,6.9,-,N/A,,Unknown,270,2013-12-07 06:00:00
3:30 AM,41.2,39.2,93,29.69,-9999.0,West,3.5,-,N/A,,Unknown,270,2013-12-07 07:00:00
4:30 AM,41.2,38.1,89,29.69,-9999.0,West,13.8,20.7,N/A,,Unknown,280,2013-12-07 08:00:00
5:30 AM,40.5,37.6,89,29.72,-9999.0,West,6.9,-,N/A,,Unknown,270,2013-12-07 09:00:00
6:30 AM,40.5,35.8,83,29.74,-9999.0,WNW,17.3,-,N/A,,Unknown,290,2013-12-07 10:00:00
7:30 AM,38.7,29.5,70,29.75,-9999.0,WNW,13.8,24.2,N/A,,Unknown,290,2013-12-07 11:00:00
8:30 AM,37,28,59,29.76,,WNW,13.8,,,,,300,2013-12-07 12:00:00
8:30 AM,37.2,27.9,69,29.76,-9999.0,WNW,16.1,-,N/A,,Unknown,290,2013-12-07 12:00:00
9:30 AM,37.0,28.4,71,29.77,-9999.0,West,9.2,-,N/A,,Unknown,280,2013-12-07 13:00:00
10:30 AM,37.2,28.0,69,29.80,-9999.0,WNW,11.5,-,N/A,,Unknown,290,2013-12-07 14:00:00
11:30 AM,37.2,27.9,69,29.78,-9999.0,WNW,12.7,-,N/A,,Unknown,290,2013-12-07 15:00:00
12:30 PM,36.1,23.4,60,29.78,-9999.0,WNW,12.7,18.4,N/A,,Unknown,290,2013-12-07 16:00:00
1:30 PM,35.8,24.8,64,29.78,-9999.0,West,12.7,19.6,N/A,,Unknown,270,2013-12-07 17:00:00
2:30 PM,36,25,53,29.78,,West,12.7,,,,,270,2013-12-07 18:00:00
2:30 PM,35.6,25.0,65,29.78,-9999.0,West,8.1,24.2,N/A,,Unknown,260,2013-12-07 18:00:00
3:30 PM,34.7,23.9,65,29.78,-9999.0,WNW,16.1,23.0,N/A,,Unknown,290,2013-12-07 19:00:00
4:30 PM,34.3,23.4,64,29.79,-9999.0,WSW,6.9,24.2,N/A,,Unknown,250,2013-12-07 20:00:00
5:30 PM,34.5,24.3,66,29.78,-9999.0,West,10.4,20.7,N/A,,Unknown,270,2013-12-07 21:00:00
6:30 PM,34.9,25.0,67,29.78,-9999.0,West,8.1,23.0,N/A,,Unknown,270,2013-12-07 22:00:00
7:30 PM,34.9,24.8,67,29.78,-9999.0,West,13.8,23.0,N/A,,Unknown,260,2013-12-07 23:00:00
8:30 PM,35,26,59,29.77,,West,11.5,,,,,260,2013-12-08 00:00:00
8:30 PM,35.1,25.9,69,29.77,-9999.0,West,11.5,24.2,N/A,,Unknown,270,2013-12-08 00:00:00
9:30 PM,34.9,25.2,68,29.77,-9999.0,West,15.0,27.6,N/A,,Unknown,270,2013-12-08 01:00:00
10:30 PM,34.3,26.4,73,29.77,-9999.0,West,19.6,28.8,N/A,,Unknown,280,2013-12-08 02:00:00
11:30 PM,33.3,24.8,71,29.78,-9999.0,WNW,21.9,31.1,N/A,,Unknown,290,2013-12-08 03:00:00